{"data":{"norad_id":55941,"intl_designator":"2023-037AD","name":"STARLINK-5914","alt_names":[],"object_type":"PAYLOAD","status":"ACTIVE","operator":null,"country":"US","launch_date":"2023-03-17","launch_site_code":"AFWTR","launch_vehicle":null,"mission":null,"orbit_class":"UNKNOWN","rcs_meters":null,"size_class":null,"mass_kg":null,"dimensions":null,"purposes":["comms"],"wikipedia_slug":null,"has_3d_model":false,"image_url":null,"decayed_at":null,"tle_current":{"epoch":"2026-09-20T22:00:03.000096Z","epoch_age_seconds":70128,"freshness":"FRESH","line1":"1 55941U 23037AD  26263.91670139  .00034493  00000+0  24683-2 0  9991","line2":"2 55941  70.0020 152.3164 0003506 256.3756  13.5594 15.04271585  5667","mean_motion":15.04271585,"eccentricity":0.0003506,"inclination_deg":70.002,"raan_deg":152.3164,"arg_perigee_deg":256.3756,"mean_anomaly_deg":13.5594,"bstar":0.0024683,"rev_number":566,"period_min":95.727394864007,"perigee_km":551.31221676565,"apogee_km":556.1728506947,"semimajor_km":6931.8795337302,"source":"CELESTRAK","updated_at":"2026-09-21T09:00:33.327764Z"}}}